#timestamp,LO_Frequency,Hit,StdDev 
1598860815.9,286046998.1,N
1598860835.7,286046999.4,N
1598860855.5,286047002.4,N
1598860875.4,286046995.7,N
1598860895.2,286046990.4,N
1598860915.1,286046991.2,N
1598860916.0,286046991.2,N
1598860935.8,286046992.1,N
1598860955.6,286046993.4,N
1598860975.5,286046997.8,N
1598860995.3,286047002.5,N
1598861015.1,286047008.7,N
1598861035.9,286047005.1,N
1598861055.7,286047005.5,N
1598861075.6,286047002.9,N
1598861095.4,286046997.5,N
1598861115.2,286047002.6,N
1598861135.1,286047007.0,N
1598861136.0,286047007.0,N
1598861155.8,286047012.1,N
1598861175.7,286046976.0,Y
1598861195.5,286046985.9,P
1598861215.3,286046991.1,N
1598861235.2,286046998.2,N
1598861255.0,286047000.8,N
1598861255.9,286047000.8,N
1598861275.7,286046995.5,N
1598861295.6,286046993.8,N
1598861315.4,286046996.6,N
1598861335.3,286047004.0,N
1598861355.1,286047008.0,N
1598861356.0,286047008.0,N
1598861375.8,286047010.8,N
1598861395.7,286047003.8,N
1598861415.5,286047003.3,N
1598861435.4,286047001.2,N
1598861455.2,286047004.4,N
1598861475.0,286047006.6,N
1598861475.9,286047006.6,N
1598861495.8,286047003.4,N
1598861515.6,286047003.5,N
1598861535.4,286047008.4,N
1598861555.3,286047008.1,N
1598861575.1,286047004.8,N
1598861595.9,286047006.7,N
1598861615.7,286047008.5,N
1598861635.5,286047012.7,N
1598861655.4,286047013.9,N
1598861675.2,286047009.4,N
1598861695.0,286047008.2,N
1598861726.0,286047003.3,E
1598861735.0,286047000.6,N
1598861735.9,286047000.6,P
1598861755.7,286046994.5,P
1598861775.6,286046988.9,Y
1598861795.4,286046998.3,P
1598861815.3,286047007.6,P
1598861835.1,286047009.2,N
1598861836.0,286047009.2,N
1598861855.8,286047009.3,N
1598861875.7,286047016.1,Y
1598861895.5,286047006.0,P
1598861915.4,286046995.0,P
1598861935.2,286046995.0,N
1598861955.0,286046993.9,N
1598861955.9,286046993.9,N
1598861975.8,286046991.4,N
1598861995.6,286046997.1,N
1598862015.4,286046997.2,N
1598862035.3,286046995.9,N
1598862055.1,286046998.0,N
1598862075.9,286046995.1,N
1598862095.7,286046994.7,N
1598862115.5,286046992.5,N
1598862135.4,286046998.0,N
1598862155.2,286046997.1,N
1598862175.1,286046991.8,N
1598862176.0,286046991.8,N
1598862195.8,286046989.2,N
1598862215.6,286046989.8,N
1598862235.5,286046983.2,Y
1598862255.3,286046982.2,P
1598862275.1,286046991.0,N
1598862295.9,286046993.1,N
1598862315.7,286046989.9,N
1598862335.6,286046989.0,N
1598862355.4,286046989.0,N
1598862405.3,286046987.2,E
1598862415.2,286046993.1,N
1598862435.0,286046997.3,P
1598862435.9,286046997.3,N
1598862455.8,286046995.3,N
1598862475.6,286047000.9,N
1598862495.4,286046997.0,N
1598862515.3,286046992.2,Y
1598862535.1,286047004.2,P
1598862555.9,286047006.1,N
1598862575.7,286047012.3,P
1598862595.5,286047011.8,N
1598862615.4,286047013.6,N
1598862635.2,286047008.1,N
1598862655.0,286047002.4,N
1598862655.9,286047002.4,N
1598862675.8,286046995.2,N
1598862695.6,286046997.4,N
1598862715.5,286046996.6,N
1598862735.3,286047002.3,N
1598862755.1,286046995.3,N
1598862775.9,286046993.3,N
1598862795.7,286046991.0,N
1598862815.6,286046995.1,N
1598862835.4,286046997.9,N
1598862855.2,286047002.4,N
1598862875.1,286047003.8,N
1598862876.0,286047003.8,N
1598862895.8,286047002.4,N
1598862915.6,286047002.1,N
1598862935.5,286046999.1,N
1598862955.3,286047005.9,N
1598862975.2,286047002.6,N
1598862995.9,286047006.0,N
1598863015.7,286047004.1,N
1598863035.6,286047001.3,N
1598863055.4,286047003.4,N
1598863075.3,286047005.0,N
1598863095.1,286047007.2,N
1598863096.0,286047007.2,N
1598863115.8,286047001.8,N
1598863135.7,286047005.7,N
1598863155.5,286047005.3,N
1598863175.4,286047003.9,N
1598863195.2,286046998.7,N
1598863215.0,286046996.9,N
1598863215.9,286046996.9,N
1598863235.8,286047002.2,N
1598863255.6,286047003.9,N
1598863275.4,286047001.8,N
1598863295.3,286046999.7,N
1598863315.1,286047000.0,N
1598863335.9,286046995.0,N
1598863355.7,286046996.2,N
1598863375.5,286046994.8,N
1598863395.4,286046995.4,N
1598863415.2,286046994.9,N
1598863435.1,286046999.0,N
1598863436.0,286046999.0,N
1598863455.8,286046997.7,N
1598863475.6,286046996.9,N
1598863495.5,286047001.3,N
1598863515.3,286047004.0,N
1598863535.1,286047003.3,N
1598863555.9,286047000.3,N
1598863575.7,286046995.8,N
1598863595.6,286046992.6,N
1598863615.4,286046991.8,N
1598863635.2,286046987.3,Y
1598863655.1,286046986.0,P
1598863656.0,286046986.0,N
1598863675.8,286046987.9,N
1598863695.7,286046986.5,N
1598863715.5,286046983.9,Y
1598863735.3,286046992.4,P
1598863755.2,286046991.8,P
1598863775.0,286046993.7,P
1598863775.9,286046993.7,Y
1598863795.8,286047008.2,P
1598863815.6,286047010.7,N
1598863835.4,286047010.4,N
1598863855.3,286047017.0,N
1598863875.1,286047016.1,N
1598863895.8,286047011.7,N
1598863915.7,286047010.5,N
1598863935.5,286047006.4,N
1598863955.4,286047006.0,N
1598863975.2,286047008.3,N
1598863995.0,286047014.6,N
1598863995.9,286047014.6,N
1598864015.8,286047009.7,N
1598864035.6,286047008.0,N
1598864055.4,286047010.0,N
1598864075.3,286047011.4,N
1598864095.1,286047007.9,N
1598864115.9,286047001.7,N
1598864135.7,286047002.6,N
1598864155.5,286047000.4,N
1598864175.4,286047002.0,N
1598864195.2,286047005.0,N
1598864215.1,286047005.6,N
1598864216.0,286047005.6,N
1598864235.8,286047003.9,N
1598864255.6,286047007.4,N
1598864275.5,286047010.1,N
1598864295.3,286047012.4,N
1598864315.1,286047008.4,N
1598864335.9,286047010.2,N
1598864355.7,286047010.6,N
1598864375.6,286047006.9,N
1598864395.4,286047004.1,N
